Wetterdaten für den Flughafen Lübeck Blankensee


ADDS - METARS form results Aviation Digital Data Service (ADDS) Output produced by METARs form (0134 UTC 25 June 2019)
found at http://www.aviationweather.gov/metar/data/
 
TAF EDHL 241700Z 2418/2421 06010G20KT CAVOK BECMG 2419/2421 09005KT

Nord: Hamburg, Lübeck
Ost: Schwerin, Rostock
Süd: Hannover
West: Bremen, Nordhloz

 

Copyright © 2016 Flugschule Hohensee